Satellite: NOAA-12
Catalog number: 21263
Epoch time:      09350.94158360
Element set:    0391
Inclination:      098.7698 deg
RA of node:       359.0854 deg
Eccentricity:    0.0012272
Arg of perigee:   340.4754 deg
Mean anomaly:     019.5954 deg
Mean motion:   14.25606800 rev/day
Decay rate:        1.5e-07 rev/day^2
Epoch rev:           96643
Checksum:              315

Satellite: MET-3/5
Catalog number: 21655
Epoch time:      09350.39900956
Element set:    0696
Inclination:      082.5570 deg
RA of node:       077.7858 deg
Eccentricity:    0.0014905
Arg of perigee:   086.8069 deg
Mean anomaly:     273.4740 deg
Mean motion:   13.17018451 rev/day
Decay rate:        5.1e-07 rev/day^2
Epoch rev:           88161
Checksum:              330

Satellite: MET-2/21
Catalog number: 22782
Epoch time:      09350.62715240
Element set:     644
Inclination:      082.5491 deg
RA of node:       037.2835 deg
Eccentricity:    0.0021914
Arg of perigee:   191.3045 deg
Mean anomaly:     168.7616 deg
Mean motion:   13.83640623 rev/day
Decay rate:        6.0e-08 rev/day^2
Epoch rev:           82283
Checksum:              293

Satellite: OKEAN-4
Catalog number: 23317
Epoch time:      09350.30965075
Element set:    0101
Inclination:      082.5381 deg
RA of node:       164.5322 deg
Eccentricity:    0.0023483
Arg of perigee:   121.8759 deg
Mean anomaly:     238.4746 deg
Mean motion:   14.82746360 rev/day
Decay rate:        6.5e-07 rev/day^2
Epoch rev:           81935
Checksum:              300

Satellite: NOAA-14
Catalog number: 23455
Epoch time:      09351.40021462
Element set:     867
Inclination:      098.8954 deg
RA of node:       068.2957 deg
Eccentricity:    0.0009910
Arg of perigee:   035.5130 deg
Mean anomaly:     324.6739 deg
Mean motion:   14.13774787 rev/day
Decay rate:       -2.5e-07 rev/day^2
Epoch rev:           77181
Checksum:              324

Satellite: NOAA-15
Catalog number: 25338
Epoch time:      09350.85117295
Element set:    0194
Inclination:      098.6002 deg
RA of node:       336.2184 deg
Eccentricity:    0.0009871
Arg of perigee:   243.8772 deg
Mean anomaly:     116.1400 deg
Mean motion:   14.24798075 rev/day
Decay rate:       1.59e-06 rev/day^2
Epoch rev:           60278
Checksum:              314

Satellite: RESURS
Catalog number: 25394
Epoch time:      09350.12218927
Element set:    0383
Inclination:      098.3201 deg
RA of node:       013.0449 deg
Eccentricity:    0.0002280
Arg of perigee:   052.1457 deg
Mean anomaly:     307.9931 deg
Mean motion:   14.24191346 rev/day
Decay rate:       -3.3e-07 rev/day^2
Epoch rev:           59429
Checksum:              279

Satellite: FENGYUN1
Catalog number: 25730
Epoch time:      09350.34486247
Element set:    0925
Inclination:      098.7714 deg
RA of node:       315.2109 deg
Eccentricity:    0.0023768
Arg of perigee:   056.8391 deg
Mean anomaly:     303.5063 deg
Mean motion:   14.08133113 rev/day
Decay rate:       7.97e-06 rev/day^2
Epoch rev:           54595
Checksum:              309

Satellite: OKEAN-0
Catalog number: 25860
Epoch time:      09350.15094333
Element set:    0864
Inclination:      097.8090 deg
RA of node:       324.3309 deg
Eccentricity:    0.0000941
Arg of perigee:   042.2161 deg
Mean anomaly:     317.9123 deg
Mean motion:   14.73602627 rev/day
Decay rate:        4.1e-07 rev/day^2
Epoch rev:           55994
Checksum:              283

Satellite: NOAA-16
Catalog number: 26536
Epoch time:      09350.83140893
Element set:    0673
Inclination:      099.1764 deg
RA of node:       358.9380 deg
Eccentricity:    0.0011192
Arg of perigee:   127.4646 deg
Mean anomaly:     232.7535 deg
Mean motion:   14.12539817 rev/day
Decay rate:      -2.55e-06 rev/day^2
Epoch rev:           47608
Checksum:              330

Satellite: NOAA-17
Catalog number: 27453
Epoch time:      09350.81757177
Element set:    0669
Inclination:      098.4605 deg
RA of node:       043.3620 deg
Eccentricity:    0.0010944
Arg of perigee:   313.4703 deg
Mean anomaly:     046.5539 deg
Mean motion:   14.24115162 rev/day
Decay rate:       1.25e-06 rev/day^2
Epoch rev:           38874
Checksum:              306

Satellite: NOAA-18
Catalog number: 28654
Epoch time:      09350.81880379
Element set:    0151
Inclination:      098.9284 deg
RA of node:       292.8155 deg
Eccentricity:    0.0014027
Arg of perigee:   205.1437 deg
Mean anomaly:     154.9031 deg
Mean motion:   14.11312601 rev/day
Decay rate:       3.09e-06 rev/day^2
Epoch rev:           23571
Checksum:              293

Satellite: NOAA-19
Catalog number: 33591
Epoch time:      09350.83820253
Element set:    0359
Inclination:      098.7682 deg
RA of node:       292.0267 deg
Eccentricity:    0.0014968
Arg of perigee:   086.3706 deg
Mean anomaly:     273.9206 deg
Mean motion:   14.11009081 rev/day
Decay rate:       1.79e-06 rev/day^2
Epoch rev:           04419
Checksum:              321

/EX
SB KEPS @ AMSAT  $ORB09351.M
Orbital Elements  09351.MISC

HR AMSAT ORBITAL ELEMENTS FOR MANNED AND MISCELLANEOUS SATELLITES
FROM WA5QGD FORT WORTH,TX December 17, 2009
Send Subscribe/unsubscribe to KEPS at 
http://www.amsat.org/mailman/listinfo/keps
BID: ORB09351.M
TO ALL RADIO AMATEURS BT

